Ludington, MI

3:43 AM EST on December 15, 2019 (GMT -0500)
Mason County

Weather History for KLDM - November, 2019

Change the Weather History Date:

Saturday, November 16, 2019

  Actual Average Record
Temperature  
Mean Temperature 26 °F -  
Max Temperature 35 °F 46 °F 63 °F (1988)
Min Temperature 18 °F 31 °F 15 °F (2002)
Degree Days  
Heating Degree Days 38    
Moisture  
Dew Point 17 °F    
Average Humidity 67    
Maximum Humidity 87    
Minimum Humidity 52    
Precipitation  
Precipitation 0.00 in - - ()
Sea Level Pressure  
Sea Level Pressure 30.39 in    
Wind  
Wind Speed 4 mph ()    
Max Wind Speed 10 mph    
Max Gust Speed -    
Visibility 10.0 miles    
Events      
Averages and records for this station are not official NWS values.
T = Trace of Precipitation, MM = Missing Value Source: Averaged Metar Reports

Daily Weather History Graph

Daily Weather History Graph

Search for Another Location

Airport or City:

Astronomy

Nov. 16, 2019 Rise Set
Actual Time 7:41 AM EST 5:18 PM EST
Civil Twilight 7:10 AM EST 5:49 PM EST
Nautical Twilight 6:35 AM EST 6:24 PM EST
Astronomical Twilight 6:01 AM EST 6:58 PM EST
Moon 8:47 PM EST (11/16) 11:38 AM EST (11/16)
Length of Visible Light 10h 39m
Length of Day
9h 37m
Waning Gibbous, 82% of the Moon is Illuminated
Nov 16
Waning Gibbous
Nov 19
Last Quarter
Nov 26
New
Dec 4
First Quarter
Dec 12
Full

Hourly Weather History & Observations

Time (EST) Temp. Windchill Dew Point Humidity Pressure Visibility Wind Dir Wind Speed Gust Speed Precip Events Conditions
12:15 AM 26.2 °F 22.1 °F 20.1 °F 78% 30.46 in 10.0 mi NE 3.5 mph - N/A   Clear
12:16 AM 26.2 °F 22.1 °F 20.1 °F 78% 30.46 in 10.0 mi NE 3.5 mph - N/A   Clear
12:35 AM 25.0 °F - 20.1 °F 82% 30.46 in 10.0 mi Calm Calm - N/A   Clear
12:36 AM 25.0 °F - 20.1 °F 82% 30.46 in 10.0 mi Calm Calm - N/A   Clear
12:55 AM 24.8 °F - 19.8 °F 81% 30.46 in 10.0 mi Calm Calm - N/A   Clear
1:15 AM 23.9 °F - 19.8 °F 84% 30.47 in 10.0 mi Calm Calm - N/A   Clear
1:35 AM 23.2 °F 18.7 °F 19.2 °F 85% 30.47 in 10.0 mi East 3.5 mph - N/A   Clear
1:55 AM 23.5 °F 19.1 °F 18.9 °F 82% 30.46 in 10.0 mi ENE 3.5 mph - N/A   Clear
1:56 AM 23.5 °F 19.1 °F 18.9 °F 82% 30.46 in 10.0 mi ENE 3.5 mph - N/A   Clear
2:15 AM 22.8 °F 18.2 °F 18.0 °F 82% 30.47 in 10.0 mi East 3.5 mph - N/A   Clear
2:35 AM 23.4 °F - 18.3 °F 81% 30.47 in 10.0 mi Calm Calm - N/A   Clear
2:55 AM 22.6 °F 18.0 °F 18.3 °F 83% 30.47 in 10.0 mi East 3.5 mph - N/A   Clear
2:56 AM 23.0 °F - 18.5 °F 83% 30.47 in 10.0 mi Calm Calm - N/A   Clear
3:15 AM 22.8 °F - 17.8 °F 81% 30.46 in 10.0 mi Calm Calm - N/A   Clear
3:16 AM 22.6 °F - 17.6 °F 81% 30.46 in 10.0 mi Calm Calm - N/A   Clear
3:35 AM 20.5 °F - 17.2 °F 87% 30.47 in 10.0 mi Calm Calm - N/A   Clear
3:55 AM 21.9 °F 15.7 °F 17.6 °F 83% 30.47 in 10.0 mi East 4.6 mph - N/A   Clear
3:56 AM 21.7 °F 15.5 °F 17.2 °F 83% 30.47 in 10.0 mi East 4.6 mph - N/A   Clear
4:15 AM 20.3 °F 13.8 °F 16.2 °F 84% 30.47 in 10.0 mi East 4.6 mph - N/A   Clear
4:16 AM 20.5 °F 14.0 °F 16.2 °F 83% 30.47 in 10.0 mi East 4.6 mph - N/A   Clear
4:35 AM 20.1 °F 12.3 °F 16.2 °F 85% 30.47 in 10.0 mi East 5.8 mph - N/A   Clear
4:36 AM 20.1 °F 12.3 °F 16.2 °F 85% 30.47 in 10.0 mi East 5.8 mph - N/A   Clear
4:55 AM 19.9 °F 13.4 °F 15.8 °F 84% 30.47 in 10.0 mi East 4.6 mph - N/A   Clear
4:56 AM 19.9 °F 12.1 °F 15.8 °F 84% 30.47 in 10.0 mi East 5.8 mph - N/A   Clear
5:15 AM 20.1 °F 12.3 °F 15.4 °F 82% 30.47 in 10.0 mi East 5.8 mph - N/A   Clear
5:35 AM 19.9 °F 14.9 °F 15.3 °F 82% 30.48 in 10.0 mi East 3.5 mph - N/A   Clear
5:55 AM 19.2 °F 12.5 °F 14.9 °F 83% 30.48 in 10.0 mi East 4.6 mph - N/A   Clear
6:15 AM 18.7 °F 10.6 °F 14.7 °F 85% 30.48 in 10.0 mi East 5.8 mph - N/A   Clear
6:35 AM 18.7 °F 10.6 °F 14.7 °F 85% 30.48 in 10.0 mi East 5.8 mph - N/A   Clear
6:55 AM 18.3 °F 9.1 °F 14.5 °F 85% 30.48 in 10.0 mi East 6.9 mph - N/A   Clear
6:56 AM 18.5 °F 9.3 °F 14.7 °F 85% 30.48 in 10.0 mi East 6.9 mph - N/A   Clear
7:15 AM 18.3 °F 10.2 °F 14.5 °F 85% 30.48 in 10.0 mi East 5.8 mph - N/A   Clear
7:35 AM 18.5 °F 11.7 °F 14.4 °F 84% 30.48 in 10.0 mi East 4.6 mph - N/A   Clear
7:36 AM 18.5 °F 11.7 °F 14.5 °F 85% 30.48 in 10.0 mi East 4.6 mph - N/A   Clear
7:55 AM 19.2 °F 11.3 °F 14.7 °F 83% 30.48 in 10.0 mi ESE 5.8 mph - N/A   Clear
8:15 AM 20.1 °F 13.6 °F 14.9 °F 80% 30.48 in 10.0 mi ESE 4.6 mph - N/A   Clear
8:35 AM 21.0 °F 13.4 °F 14.9 °F 77% 30.48 in 10.0 mi East 5.8 mph - N/A   Clear
8:55 AM 21.9 °F 13.4 °F 14.9 °F 74% 30.48 in 10.0 mi ESE 6.9 mph - N/A   Clear
9:16 AM 23.0 °F 14.7 °F 14.9 °F 71% 30.48 in 10.0 mi ESE 6.9 mph - N/A   Clear
9:35 AM 23.9 °F 15.0 °F 15.3 °F 70% 30.48 in 10.0 mi ESE 8.1 mph - N/A   Clear
9:55 AM 25.5 °F 16.2 °F 16.5 °F 69% 30.48 in 10.0 mi ESE 9.2 mph - N/A   Clear
9:56 AM 25.5 °F 16.9 °F 16.5 °F 69% 30.48 in 10.0 mi ESE 8.1 mph - N/A   Clear
10:35 AM 28.4 °F 19.1 °F 18.1 °F 65% 30.48 in 10.0 mi SE 10.4 mph - N/A   Clear
10:55 AM 29.1 °F 21.3 °F 18.3 °F 64% 30.47 in 10.0 mi SE 8.1 mph - N/A   Clear
11:15 AM 30.2 °F 21.3 °F 18.9 °F 63% 30.46 in 10.0 mi SE 10.4 mph - N/A   Clear
11:35 AM 31.1 °F 25.4 °F 19.4 °F 62% 30.46 in 10.0 mi SE 5.8 mph - N/A   Clear
11:55 AM 32.0 °F 23.6 °F 19.6 °F 60% 30.45 in 10.0 mi SE 10.4 mph - N/A   Clear
12:15 PM 32.9 °F 25.3 °F 20.1 °F 59% 30.44 in 10.0 mi SE 9.2 mph - N/A   Clear
12:35 PM 34.0 °F 26.6 °F 20.3 °F 57% 30.42 in 10.0 mi SSE 9.2 mph - N/A   Clear
12:36 PM 34.0 °F 26.0 °F 20.3 °F 57% 30.42 in 10.0 mi SSE 10.4 mph - N/A   Clear
12:55 PM 34.2 °F 26.2 °F 20.5 °F 57% 30.42 in 10.0 mi SSE 10.4 mph - N/A   Clear
1:15 PM 34.0 °F 27.2 °F 20.5 °F 58% 30.41 in 10.0 mi SE 8.1 mph - N/A   Clear
1:16 PM 34.0 °F 28.0 °F 20.7 °F 58% 30.41 in 10.0 mi SE 6.9 mph - N/A   Clear
1:35 PM 34.7 °F 26.9 °F 20.3 °F 56% 30.40 in 10.0 mi SSE 10.4 mph - N/A   Clear
1:55 PM 35.2 °F 29.5 °F 20.5 °F 55% 30.39 in 10.0 mi SSE 6.9 mph - N/A   Clear
2:15 PM 35.1 °F 30.1 °F 20.3 °F 55% 30.38 in 10.0 mi SE 5.8 mph - N/A   Clear
2:16 PM 35.2 °F 30.3 °F 20.3 °F 55% 30.38 in 10.0 mi SSE 5.8 mph - N/A   Clear
2:35 PM 35.6 °F 29.9 °F 20.8 °F 55% 30.37 in 10.0 mi SSE 6.9 mph - N/A   Clear
2:55 PM 35.6 °F 30.7 °F 20.8 °F 55% 30.36 in 10.0 mi SSE 5.8 mph - N/A   Clear
3:15 PM 35.2 °F 30.3 °F 20.5 °F 55% 30.35 in 10.0 mi SE 5.8 mph - N/A   Clear
3:35 PM 35.4 °F 31.5 °F 20.5 °F 55% 30.35 in 10.0 mi ESE 4.6 mph - N/A   Clear
3:55 PM 35.8 °F 30.9 °F 20.3 °F 53% 30.34 in 10.0 mi ESE 5.8 mph - N/A   Clear
4:15 PM 35.4 °F 29.7 °F 20.3 °F 54% 30.34 in 10.0 mi SE 6.9 mph - N/A   Clear
4:16 PM 35.6 °F 29.9 °F 20.1 °F 53% 30.34 in 10.0 mi SE 6.9 mph - N/A   Clear
4:35 PM 35.2 °F 29.5 °F 19.6 °F 53% 30.33 in 10.0 mi SSE 6.9 mph - N/A   Clear
4:36 PM 35.2 °F 29.5 °F 19.6 °F 53% 30.33 in 10.0 mi SE 6.9 mph - N/A   Clear
4:55 PM 34.3 °F 30.2 °F 19.8 °F 55% 30.32 in 10.0 mi SE 4.6 mph - N/A   Clear
4:56 PM 34.2 °F 30.0 °F 19.8 °F 56% 30.32 in 10.0 mi SE 4.6 mph - N/A   Clear
5:15 PM 33.8 °F 30.8 °F 19.4 °F 56% 30.32 in 10.0 mi SE 3.5 mph - N/A   Clear
5:16 PM 33.8 °F 30.8 °F 19.4 °F 56% 30.32 in 10.0 mi SSE 3.5 mph - N/A   Clear
5:35 PM 32.9 °F 29.8 °F 19.4 °F 58% 30.32 in 10.0 mi SE 3.5 mph - N/A   Clear
5:55 PM 32.0 °F - 19.4 °F 60% 30.32 in 10.0 mi Calm Calm - N/A   Clear
6:15 PM 30.4 °F 26.9 °F 19.4 °F 64% 30.31 in 10.0 mi ESE 3.5 mph - N/A   Clear
6:16 PM 30.4 °F 26.9 °F 19.4 °F 64% 30.31 in 10.0 mi ESE 3.5 mph - N/A   Clear
6:35 PM 30.9 °F 26.2 °F 19.0 °F 61% 30.31 in 10.0 mi ESE 4.6 mph - N/A   Clear
6:36 PM 31.1 °F 26.4 °F 18.9 °F 61% 30.31 in 10.0 mi ESE 4.6 mph - N/A   Clear
6:55 PM 30.9 °F - 17.6 °F 58% 30.31 in 10.0 mi Calm Calm - N/A   Clear
6:56 PM 30.9 °F - 17.6 °F 58% 30.31 in 10.0 mi Calm Calm - N/A   Clear
7:15 PM 30.4 °F 25.6 °F 17.1 °F 58% 30.30 in 10.0 mi ESE 4.6 mph - N/A   Clear
7:16 PM 30.4 °F 25.6 °F 17.1 °F 58% 30.31 in 10.0 mi ESE 4.6 mph - N/A   Clear
7:35 PM 30.4 °F 24.5 °F 16.7 °F 57% 30.30 in 10.0 mi SE 5.8 mph - N/A   Clear
7:36 PM 30.4 °F 23.6 °F 16.7 °F 57% 30.30 in 10.0 mi SE 6.9 mph - N/A   Clear
7:56 PM 30.0 °F 24.1 °F 16.5 °F 57% 30.30 in 10.0 mi SE 5.8 mph - N/A   Clear
8:15 PM 29.8 °F 23.0 °F 16.3 °F 57% 30.29 in 10.0 mi SE 6.9 mph - N/A   Clear
8:16 PM 30.0 °F 23.2 °F 16.3 °F 57% 30.29 in 10.0 mi SE 6.9 mph - N/A   Clear
8:35 PM 30.2 °F 23.4 °F 15.6 °F 55% 30.29 in 10.0 mi SE 6.9 mph - N/A   Clear
8:55 PM 29.8 °F 20.9 °F 14.7 °F 53% 30.29 in 10.0 mi SE 10.4 mph - N/A   Clear
9:15 PM 29.3 °F 21.5 °F 14.5 °F 54% 30.28 in 10.0 mi SE 8.1 mph - N/A   Clear
9:16 PM 29.3 °F 21.5 °F 14.5 °F 54% 30.28 in 10.0 mi SE 8.1 mph - N/A   Clear
9:35 PM 28.9 °F 20.4 °F 14.2 °F 54% 30.27 in 10.0 mi SE 9.2 mph - N/A   Clear
9:55 PM 28.4 °F 19.7 °F 13.6 °F 54% 30.27 in 10.0 mi SE 9.2 mph - N/A   Clear
9:56 PM 28.4 °F 19.7 °F 13.6 °F 54% 30.27 in 10.0 mi SE 9.2 mph - N/A   Clear
10:35 PM 28.0 °F 18.6 °F 12.6 °F 52% 30.27 in 10.0 mi SE 10.4 mph - N/A   Clear
10:55 PM 27.5 °F 19.3 °F 12.2 °F 53% 30.26 in 10.0 mi SE 8.1 mph - N/A   Clear
11:15 PM 27.1 °F 19.7 °F 12.0 °F 53% 30.26 in 10.0 mi SE 6.9 mph - N/A   Clear
11:16 PM 27.1 °F 18.9 °F 12.2 °F 53% 30.26 in 10.0 mi SE 8.1 mph - N/A   Clear
11:35 PM 27.0 °F 19.5 °F 12.0 °F 53% 30.26 in 10.0 mi SE 6.9 mph - N/A   Clear
11:55 PM 26.6 °F 18.2 °F 12.0 °F 54% 30.26 in 10.0 mi SE 8.1 mph - N/A   Clear